Home   Weather   Vasai-Virar   Past weeks

Flag for India Past Weather in Vasai-Virar, Maharashtra, India — Yesterday and Last 2 Weeks

Now
84 °F

Clear.


Feels Like: 84 °F
Forecast: 66 / 93 °F
Wind: 10 mph from West

Location: Mumbai / Santacruz

Current Time: Dec 11, 2016 at 1:51:00 pm

Latest Report: Dec 11, 2016 at 1:00 pm


Visibility: 2 mi

Pressure: 29.86 "Hg

Humidity: 43%

Dew Point: 59 °F

Location of Vasai-VirarLocation

Past Weather in Vasai-Virar — Graph

°F

Vasai-Virar Temperature Yesterday

Maximum temperature yesterday: 88 °F (at 11:30 am)
Minimum temperature yesterday: 68 °F (at 5:30 am)
Average temperature yesterday: 80 °F

High & Low Weather Summary for the Past Weeks

 TemperatureHumidityPressure
High97 °F (Dec 4, 1:30 pm)83% (Nov 29, 3:30 am)30.04 "Hg (Nov 29, 3:30 am)
Low68 °F (Dec 10, 5:30 am)18% (Nov 27, 2:30 pm)29.80 "Hg (Nov 27, 4:30 pm)
Average83 °F49%29.90 "Hg
* Reported Nov 26 12:30 pm — Dec 11 12:30 pm, Vasai-Virar, Weather by CustomWeather, © 2016

Note: Actual official high and low records may vary slightly from our data, if they occured in-between our weather recording intervals... More about our weather records

Advertising

Vasai-Virar Weather History for the Previous 24 Hours

Scroll right to see more
 ConditionsComfort  
Time TempWeatherWind HumidityBarometerVisibility
12:30 pm
Sun, Dec 11
84 °FPassing clouds.10 mph40%29.86 "Hg2 mi
12:00 pm86 °FPassing clouds.3 mph25%29.89 "Hg2 mi
11:30 am86 °FPassing clouds.5 mph25%29.89 "Hg2 mi
11:00 am84 °FPassing clouds.5 mph27%29.92 "Hg2 mi
10:30 am82 °FPassing clouds.6 mph28%29.92 "Hg1 mi
10:00 am81 °FPassing clouds.8 mph30%29.92 "Hg1 mi
9:30 am77 °FPassing clouds.7 mph42%29.92 "Hg1 mi
9:00 am75 °FPassing clouds.8 mph44%29.92 "Hg1 mi
8:30 am73 °FPassing clouds.5 mph47%29.89 "Hg1 mi
8:00 am72 °FPassing clouds.3 mph53%29.89 "Hg1 mi
7:30 am68 °FHaze.3 mph60%29.89 "Hg1 mi
7:00 am68 °FHaze.3 mph60%29.86 "Hg1 mi
6:30 am68 °FHaze.3 mph60%29.86 "Hg1 mi
6:00 am68 °FHaze.3 mph64%29.86 "Hg1 mi
5:30 am70 °FHaze.3 mph64%29.86 "Hg1 mi
5:00 am70 °FClear.No wind60%29.83 "Hg1 mi
4:30 am73 °FClear.5 mph53%29.83 "Hg1 mi
4:00 am70 °FClear.No wind60%29.83 "Hg1 mi
3:30 am72 °FClear.3 mph57%29.83 "Hg1 mi
3:00 am73 °FClear.5 mph53%29.83 "Hg1 mi
2:30 am73 °FClear.No wind53%29.83 "Hg1 mi
2:00 am75 °FClear.No wind54%29.83 "Hg1 mi
1:30 am73 °FClear.No wind57%29.86 "Hg1 mi
1:00 am75 °FClear.No wind50%29.86 "Hg1 mi
12:30 am75 °FClear.5 mph50%29.86 "Hg1 mi
12:00 am77 °FClear.5 mph44%29.86 "Hg1 mi
11:30 pm
Sat, Dec 10
77 °FClear.No wind44%29.86 "Hg1 mi
11:00 pm79 °FClear.3 mph42%29.89 "Hg1 mi
10:30 pm79 °FClear.3 mph45%29.89 "Hg1 mi
10:00 pm79 °FClear.5 mph51%29.89 "Hg1 mi
9:30 pm79 °FClear.5 mph51%29.89 "Hg1 mi
9:00 pm79 °FClear.6 mph54%29.89 "Hg1 mi
8:30 pm79 °FClear.5 mph54%29.89 "Hg1 mi
8:00 pm81 °FClear.7 mph54%29.86 "Hg1 mi
7:30 pm81 °FClear.8 mph54%29.86 "Hg1 mi
7:00 pm82 °FClear.7 mph45%29.86 "Hg1 mi
6:30 pm82 °FClear.5 mph42%29.83 "Hg2 mi
6:00 pm82 °FClear.7 mph45%29.83 "Hg2 mi
5:30 pm84 °FClear.9 mph45%29.83 "Hg2 mi
5:00 pm84 °FClear.9 mph45%29.83 "Hg2 mi
4:30 pm86 °FClear.10 mph40%29.83 "Hg2 mi
4:00 pm88 °FClear.9 mph40%29.83 "Hg2 mi
3:30 pm88 °FClear.10 mph35%29.83 "Hg2 mi
3:00 pm88 °FClear.9 mph38%29.83 "Hg2 mi
2:30 pm88 °FClear.10 mph38%29.83 "Hg2 mi
2:00 pm86 °FClear.10 mph40%29.86 "Hg2 mi
1:30 pm86 °FClear.8 mph40%29.86 "Hg2 mi
1:00 pm86 °FClear.10 mph38%29.86 "Hg2 mi
Weather by CustomWeather, © 2016

See weather overviewHow to use our weather pages